Regional Weather Roundup
Issued by NWS

Home | Current Version | Previous Version | Graphics & Text | Print | Product List | Glossary On
Versions: 1 2 3 4 5 6 7 8 9 10 11 12 13 14 15 16 17 18 19 20 21 22 23 24 25 26 27 28 29 30 31 32 33 34 35 36 37 38 39 40 41 42 43 44 45 46 47 48 49 50
000
ASUS43 KLSX 181307
RWRMO

WEATHER SUMMARY FOR MISSOURI
NATIONAL WEATHER SERVICE SPRINGFIELD MO
700 AM CST SAT NOV 18 2017

NOTE: "FAIR" INDICATES FEW OR NO CLOUDS BELOW 12,000 FEET WITH NO
       SIGNIFICANT WEATHER AND/OR OBSTRUCTIONS TO VISIBILITY.
       CURRENT SKY AND/OR WEATHER CONDITIONS ARE NOT AVAILABLE FOR
       CHILLICOTHE AND FARMINGTON.

MOZ001>031-035>038-043-044-053-054-181400-
...NORTHERN AND WESTERN MISSOURI...

CITY           SKY/WX    TMP DP  RH WIND       PRES   REMARKS
KANSAS CTY INT CLOUDY    44  42  93 N29G40    29.61R
KANSAS C DTWN  LGT RAIN  48  42  80 N20G35    29.61R
LEE`S SUMMIT   LGT RAIN  46  45  96 N32G45    29.58R FOG
ST JOSEPH      RAIN      42  40  92 N26G32    29.69R FOG
CHILLICOTHE      N/A     45  43  93 N13G24    29.58R
KIRKSVILLE     LGT RAIN  43  42  97 N22G30    29.51R

$$
MOZ066>068-077>081-088>096-101>105-181400-
...SOUTHWEST MISSOURI...

CITY           SKY/WX    TMP DP  RH WIND       PRES   REMARKS
SPRINGFIELD    CLOUDY    68  60  75 SW17G26   29.44R
JOPLIN         CLOUDY    57  56  96 W16       29.54R
BRANSON        MOCLDY    70  59  68 SW13G22   29.49R

$$
MOZ032>034-039>042-045>050-055>058-069>072-181400-
...CENTRAL MISSOURI...

CITY           SKY/WX    TMP DP  RH WIND       PRES   REMARKS
COLUMBIA       MOCLDY    64  61  90 SW12      29.34S
JEFFERSON CITY CLOUDY    67  60  78 SW3       29.34S
ROLLA          CLOUDY    68  61  78 SW15G23   29.38F
SEDALIA        LGT RAIN  54  53  97 N26G32    29.47R
WHITEMAN AFB   LGT RAIN  50  48  92 N24G38    29.44R FOG
WARRENSBURG    LGT RAIN  48  46  93 NW21G30   29.51R
OSAGE BEACH    CLOUDY    71  60  68 SW10      29.38R

$$
MOZ051-052-059>065-181400-
...EAST CENTRAL MISSOURI...

CITY           SKY/WX    TMP DP  RH WIND       PRES   REMARKS
ST LOUIS INTL  CLOUDY    65  62  90 S14       29.35F
SPIRIT OF STL  CLOUDY    67  63  87 VRB6      29.34F
ST CHARLES     MOCLDY    65  62  90 S13       29.33F

$$
MOZ072>076-082>087-097>100-106>115-181400-
...SOUTH CENTRAL AND SOUTHEAST MISSOURI...

CITY           SKY/WX    TMP DP  RH WIND       PRES   REMARKS
CAPE GIRARDEAU CLOUDY    65  60  84 S16G28    29.51F
FARMINGTON     LGT RAIN  66  63  90 S17       29.46R
POPLAR BLUFF   CLOUDY    69  63  81 S21G32    29.48F
WEST PLAINS    CLOUDY    68  62  81 SW13G22   29.48S

$$


USA.gov is the U.S. government's official web portal to all federal, state and local government web resources and services.